This is the latest recevied weather packets stored in our database for station/object SR2GKG-13. If no packets are shown the sender has not sent any weather packets the latest 10 day(s).
| Time | Temp. | Humidity | Pressure | Rain* | Wind** | Luminosity | Snow |
|---|---|---|---|---|---|---|---|
| 1778114386 | 8.89° C | 97% | 996.9 hPa | - | - | - | - |
| 1778113486 | 8.89° C | 97% | 997 hPa | - | - | - | - |
| 1778112586 | 8.89° C | 97% | 996.8 hPa | - | - | - | - |
| 1778111686 | 8.89° C | 96% | 996.8 hPa | - | - | - | - |
| 1778110786 | 8.89° C | 96% | 996.9 hPa | - | - | - | - |
| 1778109885 | 9.44° C | 94% | 996.8 hPa | - | - | - | - |
| 1778108985 | 9.44° C | 94% | 996.9 hPa | - | - | - | - |
| 1778108085 | 9.44° C | 93% | 997 hPa | - | - | - | - |
| 1778107185 | 9.44° C | 92% | 997 hPa | - | - | - | - |
| 1778106285 | 9.44° C | 94% | 996.8 hPa | - | - | - | - |
| 1778105385 | 9.44° C | 95% | 996.3 hPa | - | - | - | - |
| 1778104485 | 9.44° C | 96% | 996.1 hPa | - | - | - | - |
| 1778103585 | 10° C | 97% | 996 hPa | - | - | - | - |
| 1778102684 | 10° C | 97% | 996.1 hPa | - | - | - | - |
| 1778101784 | 10.56° C | 98% | 995.9 hPa | - | - | - | - |
| 1778100884 | 10.56° C | 97% | 995.9 hPa | - | - | - | - |
| 1778099984 | 11.11° C | 95% | 995.8 hPa | - | - | - | - |
| 1778099084 | 11.67° C | 96% | 995.9 hPa | - | - | - | - |
| 1778098183 | 11.67° C | 94% | 995.9 hPa | - | - | - | - |
| 1778097283 | 12.22° C | 92% | 995.8 hPa | - | - | - | - |
| 1778096383 | 12.22° C | 93% | 995.4 hPa | - | - | - | - |
| 1778095483 | 12.22° C | 91% | 995.4 hPa | - | - | - | - |
| 1778094583 | 12.22° C | 88% | 995.4 hPa | - | - | - | - |
| 1778093683 | 12.78° C | 86% | 995.3 hPa | - | - | - | - |
| 1778092783 | 12.78° C | 86% | 995.1 hPa | - | - | - | - |
* Rain since midnight (hover to see other rain measurements)
** Current wind speed in m/s (hover to see current wind gust speed)